Regional Weather Roundup
Issued by NWS

Home | Current Version | Previous Version | Text Only | Print | Product List | Glossary Off
Versions: 1 2 3 4 5 6 7 8 9 10 11 12 13 14 15 16 17 18 19 20 21 22 23 24 25 26 27 28 29 30 31 32 33 34 35 36 37 38 39 40 41 42 43 44 45 46 47 48 49 50

000
ASUS43 KLSX 030557
RWRMO

WEATHER SUMMARY FOR MISSOURI
NATIONAL WEATHER SERVICE SPRINGFIELD MO
100 AM CDT TUE MAY 03 2016

NOTE: "FAIR" INDICATES FEW OR NO CLOUDS BELOW 12,000 FEET WITH NO
       SIGNIFICANT WEATHER AND/OR OBSTRUCTIONS TO VISIBILITY.
       CURRENT SKY AND/OR WEATHER CONDITIONS ARE NOT AVAILABLE FOR
       CHILLICOTHE AND FARMINGTON.

MOZ001>031-035>038-043-044-053-054-030700-
...NORTHERN AND WESTERN MISSOURI...

CITY           SKY/WX    TMP DP  RH WIND       PRES   REMARKS
KANSAS CTY INT CLEAR     48  44  86 W5        30.07S
6HR MIN TEMP:  46; 6HR MAX TEMP:  57;

LEE`S SUMMIT   CLEAR     46  44  93 W6        30.07S
6HR MIN TEMP:  46; 6HR MAX TEMP:  54;

ST JOSEPH      CLEAR     47  45  93 CALM      30.07R FOG
6HR MIN TEMP:  46; 6HR MAX TEMP:  60;

CHILLICOTHE      N/A     43  43 100 CALM      30.07R
6HR MIN TEMP:  42; 6HR MAX TEMP:  60;


$$
MOZ066>068-077>081-088>096-101>105-030700-
...SOUTHWEST MISSOURI...

CITY           SKY/WX    TMP DP  RH WIND       PRES   REMARKS
SPRINGFIELD    CLEAR     46  44  93 NW3       30.06S
6HR MIN TEMP:  46; 6HR MAX TEMP:  53;

JOPLIN         CLEAR     46  45  96 CALM      30.08S FOG
6HR MIN TEMP:  46; 6HR MAX TEMP:  52; 6HR PCP: TRACE;


$$
MOZ032>034-039>042-045>050-055>058-069>072-030700-
...CENTRAL MISSOURI...

CITY           SKY/WX    TMP DP  RH WIND       PRES   REMARKS
COLUMBIA       NOT AVBL
JEFFERSON CITY PTCLDY    46  45  96 N3        30.06S FOG
6HR MIN TEMP:  46; 6HR MAX TEMP:  54;

ROLLA          CLOUDY    48  47  96 CALM      30.03S
6HR MIN TEMP:  47; 6HR MAX TEMP:  51;

SEDALIA        CLEAR     47  45  93 SW3       30.07S
6HR MIN TEMP:  47; 6HR MAX TEMP:  53;

WARRENSBURG    CLEAR     45  45 100 CALM      30.06S

$$
MOZ051-052-059>065-030700-
...EAST CENTRAL MISSOURI...

CITY           SKY/WX    TMP DP  RH WIND       PRES   REMARKS
ST LOUIS INTL  CLOUDY    54  49  83 NW3       30.03F
6HR MIN TEMP:  53; 6HR MAX TEMP:  56; 6HR PCP: TRACE;


$$
MOZ072>076-082>087-097>100-106>115-030700-
...SOUTH CENTRAL AND SOUTHEAST MISSOURI...

CITY           SKY/WX    TMP DP  RH WIND       PRES   REMARKS
CAPE GIRARDEAU CLOUDY    56  49  77 NW5       30.02S
6HR MIN TEMP:  55; 6HR MAX TEMP:  60;

POPLAR BLUFF   CLOUDY    56  49  77 N6        30.02F
6HR MIN TEMP:  56; 6HR MAX TEMP:  63;

WEST PLAINS    CLOUDY    51  45  79 N3        30.05F
6HR MIN TEMP:  51; 6HR MAX TEMP:  57;


$$



USA.gov is the U.S. government's official web portal to all federal, state and local government web resources and services.